Torna al catalogo

STARLINK-3182

AttivoComunicazioniVLEO
NORAD 51469·PAYLOAD·🇺🇸 United States

Lanciato Feb 3, 2022 da Cape Canaveral Space Force Station

Loading…

Prossimi Passaggi (prossime 24 ore)

TLE

AggiornatoSource: CelesTrak SupGP

Epoca: Sep 14, 2026, 21:15 UTC

1 51469C 22010P   26257.88590278 -.00026091  00000+0 -74651-3 0  2571
2 51469  53.1572 141.6905 0001241  94.0256 187.5334 15.35410264    13

Traccia STARLINK-3182 in tempo reale con AllMySat

Download on the App Store